Location: Unspecified
(44.0704°N, 88.6889°W)
Time: 19:14:24
(UTC+02:00)

Courier 1B Rocket - All Passes

Search period start: 24 June 2019 00:00
Search period end: 04 July 2019 00:00
Orbit: 920 x 1202 km, 28.2° (Epoch: 23 June)

Date Brightness Start Highest point End Pass type
(mag) Time Alt. Az. Time Alt. Az. Time Alt. Az.
24 Jun - 10:57:45 10° SSW 11:01:26 15° SSE 11:05:01 10° SE visible
24 Jun - 12:49:05 10° SW 12:53:51 20° S 12:58:25 10° SE daylight
24 Jun - 14:42:23 10° SW 14:46:11 16° SSW 14:49:54 10° SSE daylight
25 Jun - 09:58:04 10° S 10:00:40 12° SSE 10:03:14 10° SE visible
25 Jun - 11:48:17 10° SW 11:53:06 20° S 11:57:42 10° SE daylight
25 Jun - 13:41:02 10° SW 13:45:30 19° S 13:49:49 10° SSE daylight
26 Jun - 10:47:39 10° SSW 10:52:19 18° S 10:56:48 10° SE visible
26 Jun - 12:39:51 10° SW 12:44:47 20° S 12:49:29 10° SE daylight
26 Jun - 14:34:00 10° SW 14:37:05 14° SSW 14:40:05 10° S daylight
27 Jun - 09:47:17 10° SSW 09:51:31 16° SSE 09:55:36 10° SE visible
27 Jun - 11:38:50 10° SW 11:44:00 21° S 11:48:57 10° SE visible
27 Jun - 13:32:13 10° SW 13:36:24 17° SSW 13:40:26 10° SSE daylight
28 Jun - 08:47:25 10° S 08:50:43 13° SSE 08:53:57 10° SE visible
28 Jun - 10:37:58 10° SW 10:43:12 21° S 10:48:13 10° SE visible
28 Jun - 12:30:49 10° SW 12:35:41 20° S 12:40:21 10° SE daylight
28 Jun - 14:26:39 10° SW 14:27:55 11° SSW 14:29:10 10° SSW daylight
29 Jun - 07:49:27 10° SSE 07:49:55 10° SSE 07:50:23 10° SSE visible
29 Jun - 09:37:17 10° SSW 09:42:22 19° S 09:47:16 10° SE visible
29 Jun - 11:29:35 10° SW 11:34:54 22° S 11:39:59 10° SE visible
29 Jun - 13:23:45 10° SW 13:27:16 14° SSW 13:30:41 10° SSE daylight
30 Jun - 08:36:52 10° SSW 08:41:31 17° SSE 08:46:02 10° SE visible
30 Jun - 10:28:31 10° SW 10:34:05 22° S 10:39:23 10° SE visible
30 Jun - 12:21:58 10° SW 12:26:33 18° SSW 12:30:58 10° SSE daylight
01 Jul - 07:36:56 10° S 07:40:40 14° SSE 07:44:22 10° SE visible
01 Jul - 09:27:37 10° SW 09:33:12 22° S 09:38:35 10° SE visible
01 Jul - 11:20:31 10° SW 11:25:46 21° S 11:30:48 10° SE visible
01 Jul - 13:16:00 10° SW 13:18:04 11° SSW 13:20:06 10° S daylight
02 Jul - 06:38:14 10° SSE 06:39:52 11° SSE 06:41:29 10° SE night (unlit)
02 Jul - 08:26:56 10° SSW 08:32:19 20° S 08:37:34 10° SE visible
02 Jul - 10:19:17 10° SW 10:24:56 23° S 10:30:22 10° SE visible
02 Jul - 12:13:24 10° SW 12:17:22 15° SSW 12:21:13 10° SSE daylight
03 Jul - 07:26:33 10° SSW 07:31:26 18° SSE 07:36:16 10° SE visible
03 Jul - 09:18:13 10° SW 09:24:03 23° S 09:29:41 10° SE visible
03 Jul - 11:11:39 10° SW 11:16:35 19° SSW 11:21:23 10° SSE visible
